When you browse on this site, cookies collect data to enhance your experience and personalize the content and advertising you see.
Visit our Privacy Policy to learn more. By continuing to use the site, you agree to this use of cookies and data.
  • In Hungary
  • List of Countries
  • For 7 days
  • Water Temperature
  • Satellite Maps
  • Weather Map
  • News
  • Weather Widgets
  • user-avatar
    Login

    Hourly Weather Bielice

    Today, 22 May, Wednesday

    Time Temperature Precipitation Wind Pressure Humidity
    00:00 +16°C° 0.2 mm 3 mps 748 mmHg 93%
    01:00 +15°C° 0 mm 4 mps 748 mmHg 96%
    02:00 +14°C° 0.1 mm 4 mps 749 mmHg 96%
    03:00 +14°C° 0.1 mm 4 mps 749 mmHg 95%
    04:00 +14°C° 0.1 mm 4 mps 749 mmHg 95%
    05:00 +14°C° 0 mm 5 mps 749 mmHg 94%
    06:00 +14°C° 0 mm 5 mps 749 mmHg 93%
    07:00 +14°C° 0 mm 4 mps 750 mmHg 92%
    08:00 +14°C° 0.2 mm 4 mps 750 mmHg 91%
    09:00 +14°C° 0.2 mm 5 mps 750 mmHg 91%
    10:00 +13°C° 0.2 mm 5 mps 751 mmHg 91%
    11:00 +14°C° 0.1 mm 5 mps 751 mmHg 89%
    12:00 +14°C° 0.1 mm 5 mps 751 mmHg 88%
    13:00 +14°C° 0.1 mm 5 mps 751 mmHg 87%
    14:00 +14°C° 0.1 mm 5 mps 752 mmHg 86%
    15:00 +14°C° 0.1 mm 5 mps 752 mmHg 85%
    16:00 +14°C° 0.1 mm 5 mps 752 mmHg 85%
    17:00 +14°C° 0.1 mm 5 mps 752 mmHg 85%
    18:00 +13°C° 0.1 mm 5 mps 753 mmHg 85%
    19:00 +13°C° 0.1 mm 5 mps 753 mmHg 85%
    20:00 +12°C° 0.1 mm 5 mps 753 mmHg 86%
    21:00 +12°C° 0.1 mm 5 mps 754 mmHg 86%
    22:00 +12°C° 0.1 mm 5 mps 754 mmHg 86%
    23:00 +10°C° 0.1 mm 5 mps 754 mmHg 86%

    Tomorrow, 23 May, Thursday

    Time Temperature Precipitation Wind Pressure Humidity
    00:00 +10°C° 0.1 mm 5 mps 755 mmHg 86%
    01:00 +10°C° 0.1 mm 5 mps 755 mmHg 86%
    02:00 +10°C° 0 mm 5 mps 755 mmHg 85%
    03:00 +10°C° 0 mm 5 mps 755 mmHg 84%
    04:00 +9°C° 0 mm 5 mps 755 mmHg 82%
    05:00 +11°C° 0 mm 4 mps 756 mmHg 80%
    06:00 +11°C° 0 mm 4 mps 756 mmHg 78%
    07:00 +11°C° 0 mm 4 mps 756 mmHg 75%
    08:00 +13°C° 0 mm 4 mps 756 mmHg 67%
    09:00 +14°C° 0 mm 4 mps 757 mmHg 59%
    10:00 +16°C° 0 mm 5 mps 757 mmHg 52%
    11:00 +18°C° 0 mm 4 mps 757 mmHg 48%
    12:00 +19°C° 0 mm 4 mps 756 mmHg 44%
    13:00 +20°C° 0 mm 4 mps 756 mmHg 40%
    14:00 +20°C° 0 mm 4 mps 756 mmHg 40%
    15:00 +20°C° 0 mm 4 mps 756 mmHg 40%
    16:00 +20°C° 0 mm 4 mps 756 mmHg 40%
    17:00 +19°C° 0 mm 3 mps 756 mmHg 47%
    18:00 +18°C° 0 mm 3 mps 756 mmHg 54%
    19:00 +17°C° 0 mm 2 mps 756 mmHg 61%
    20:00 +15°C° 0 mm 2 mps 756 mmHg 66%
    21:00 +13°C° 0 mm 1 mps 756 mmHg 71%
    22:00 +12°C° 0 mm 1 mps 756 mmHg 76%
    23:00 +11°C° 0 mm 1 mps 756 mmHg 76%

    Day after tomorrow, 24 May, Friday

    Time Temperature Precipitation Wind Pressure Humidity
    00:00 +11°C° 0 mm 1 mps 756 mmHg 76%
    01:00 +11°C° 0 mm 1 mps 756 mmHg 76%
    02:00 +11°C° 0 mm 1 mps 756 mmHg 76%
    03:00 +11°C° 0 mm 1 mps 756 mmHg 77%
    04:00 +11°C° 0 mm 1 mps 756 mmHg 77%
    05:00 +12°C° 0 mm 2 mps 755 mmHg 73%
    06:00 +14°C° 0 mm 2 mps 755 mmHg 69%
    07:00 +15°C° 0 mm 2 mps 755 mmHg 64%
    08:00 +17°C° 0 mm 2 mps 755 mmHg 59%
    09:00 +19°C° 0 mm 2 mps 755 mmHg 54%
    10:00 +21°C° 0 mm 2 mps 755 mmHg 49%
    11:00 +21°C° 0 mm 2 mps 754 mmHg 48%
    12:00 +21°C° 0 mm 2 mps 754 mmHg 48%
    13:00 +21°C° 0 mm 2 mps 754 mmHg 48%
    14:00 +21°C° 0 mm 2 mps 753 mmHg 48%
    15:00 +21°C° 0 mm 2 mps 753 mmHg 49%
    16:00 +21°C° 0 mm 2 mps 752 mmHg 49%
    17:00 +22°C° 0 mm 1 mps 752 mmHg 54%
    18:00 +21°C° 0 mm 1 mps 752 mmHg 59%
    19:00 +20°C° 0 mm 1 mps 752 mmHg 64%
    20:00 +19°C° 0 mm 1 mps 752 mmHg 68%
    21:00 +16°C° 0 mm 2 mps 752 mmHg 73%
    22:00 +15°C° 0 mm 2 mps 752 mmHg 77%
    23:00 +14°C° 0 mm 2 mps 752 mmHg 80%

    25 May, Saturday

    Time Temperature Precipitation Wind Pressure Humidity
    00:00 +13°C° 0 mm 2 mps 752 mmHg 83%
    01:00 +13°C° 0 mm 2 mps 752 mmHg 87%
    02:00 +13°C° 0 mm 2 mps 752 mmHg 88%
    03:00 +13°C° 0 mm 2 mps 753 mmHg 89%
    04:00 +13°C° 0 mm 2 mps 753 mmHg 90%
    05:00 +13°C° 0 mm 2 mps 753 mmHg 85%
    06:00 +13°C° 0 mm 3 mps 753 mmHg 81%
    07:00 +14°C° 0 mm 3 mps 753 mmHg 76%
    08:00 +16°C° 0 mm 3 mps 753 mmHg 67%
    09:00 +17°C° 0 mm 4 mps 753 mmHg 58%
    10:00 +18°C° 0 mm 4 mps 754 mmHg 49%
    11:00 +19°C° 0 mm 4 mps 753 mmHg 48%
    12:00 +20°C° 0 mm 4 mps 753 mmHg 47%
    13:00 +20°C° 0 mm 5 mps 753 mmHg 46%
    14:00 +20°C° 0 mm 5 mps 753 mmHg 49%
    15:00 +19°C° 0 mm 5 mps 753 mmHg 52%
    16:00 +17°C° 0 mm 5 mps 753 mmHg 56%
    17:00 +18°C° 0 mm 4 mps 753 mmHg 59%
    18:00 +17°C° 0 mm 3 mps 753 mmHg 63%
    19:00 +16°C° 0 mm 3 mps 753 mmHg 67%
    20:00 +14°C° 0 mm 3 mps 753 mmHg 69%
    21:00 +13°C° 0 mm 3 mps 753 mmHg 71%
    22:00 +13°C° 0 mm 3 mps 753 mmHg 74%
    23:00 +11°C° 0 mm 3 mps 753 mmHg 76%

    26 May, Sunday

    Time Temperature Precipitation Wind Pressure Humidity
    00:00 +10°C° 0 mm 3 mps 753 mmHg 79%
    01:00 +9°C° 0 mm 3 mps 753 mmHg 82%
    02:00 +9°C° 0 mm 3 mps 753 mmHg 83%
    03:00 +9°C° 0 mm 3 mps 752 mmHg 83%
    04:00 +8°C° 0 mm 4 mps 752 mmHg 84%
    05:00 +8°C° 0 mm 4 mps 752 mmHg 81%
    06:00 +9°C° 0 mm 5 mps 752 mmHg 78%
    07:00 +10°C° 0 mm 5 mps 752 mmHg 75%
    08:00 +10°C° 0.1 mm 5 mps 752 mmHg 75%
    09:00 +10°C° 0.1 mm 5 mps 752 mmHg 74%
    10:00 +10°C° 0.1 mm 5 mps 752 mmHg 74%
    11:00 +10°C° 0.1 mm 6 mps 752 mmHg 72%
    12:00 +10°C° 0.1 mm 6 mps 752 mmHg 71%
    13:00 +10°C° 0.1 mm 6 mps 752 mmHg 69%
    14:00 +11°C° 0 mm 6 mps 752 mmHg 67%
    15:00 +11°C° 0 mm 6 mps 752 mmHg 64%
    16:00 +11°C° 0 mm 6 mps 752 mmHg 61%
    17:00 +12°C° 0 mm 5 mps 752 mmHg 62%
    18:00 +12°C° 0 mm 4 mps 752 mmHg 63%
    19:00 +12°C° 0 mm 4 mps 752 mmHg 64%
    20:00 +11°C° 0 mm 3 mps 752 mmHg 68%
    21:00 +10°C° 0 mm 3 mps 752 mmHg 72%
    22:00 +9°C° 0 mm 3 mps 752 mmHg 76%
    23:00 +8°C° 0 mm 3 mps 752 mmHg 81%

    27 May, Monday

    Time Temperature Precipitation Wind Pressure Humidity
    00:00 +7°C° 0 mm 2 mps 752 mmHg 86%
    01:00 +6°C° 0 mm 2 mps 752 mmHg 90%
    02:00 +6°C° 0 mm 2 mps 752 mmHg 92%
    03:00 +5°C° 0 mm 2 mps 752 mmHg 94%
    04:00 +5°C° 0 mm 2 mps 752 mmHg 95%
    05:00 +7°C° 0 mm 2 mps 752 mmHg 86%
    06:00 +9°C° 0 mm 2 mps 752 mmHg 77%
    07:00 +12°C° 0 mm 2 mps 751 mmHg 68%
    08:00 +14°C° 0 mm 2 mps 751 mmHg 62%
    09:00 +16°C° 0 mm 2 mps 751 mmHg 56%
    10:00 +18°C° 0 mm 3 mps 751 mmHg 50%
    11:00 +19°C° 0 mm 3 mps 750 mmHg 52%
    12:00 +20°C° 0 mm 3 mps 750 mmHg 54%
    13:00 +21°C° 0 mm 3 mps 749 mmHg 55%
    14:00 +20°C° 0.9 mm 3 mps 749 mmHg 64%
    15:00 +19°C° 0.9 mm 3 mps 748 mmHg 73%
    16:00 +18°C° 0.9 mm 3 mps 748 mmHg 82%
    17:00 +18°C° 0.4 mm 2 mps 747 mmHg 85%
    18:00 +18°C° 0.4 mm 1 mps 747 mmHg 88%
    19:00 +15°C° 0.4 mm 0 mps 747 mmHg 91%
    20:00 +15°C° 0 mm 1 mps 747 mmHg 93%
    21:00 +14°C° 0 mm 1 mps 747 mmHg 94%
    22:00 +13°C° 0 mm 1 mps 747 mmHg 96%
    23:00 +13°C° 0 mm 1 mps 747 mmHg 96%
    Show more